Location: Wien
(48.2082°N, 16.3738°E)
Time: 12:23:47
(UTC+02:00)

Tiangong - Visible Passes

Search period start: 12 September 2024 00:00
Search period end: 22 September 2024 00:00
Orbit: 376 x 378 km, 41.5° (Epoch: 11 September)

Date Brightness Start Highest point End Pass type
(mag) Time Alt. Az. Time Alt. Az. Time Alt. Az.
18 Sep 0.4 20:36:05 10° SSW 20:36:32 12° S 20:36:32 12° S visible
19 Sep 0.7 21:08:54 10° SW 21:09:02 11° SW 21:09:02 11° SW visible
20 Sep -0.3 20:06:38 10° SSW 20:08:47 17° SSE 20:09:21 16° SSE visible
21 Sep -0.4 20:39:41 10° SW 20:41:33 21° SSW 20:41:33 21° SSW visible
